Wind_Speed
31 39 47 42 47 44 35 41 45 42 33 31 28 26 22 20 22 20 24 20 17 10 18 19 18 11 13 8 6 7 4 3 6 6 3 11 5 7 6 11 7 10 4 8 25
23 35 44 25 49 46 37 45 46 43 36 33 29 26 23 21 21 24 22 21 21 10 20 20 21 21 4 6 4 3 4 8 2 3 1 8 7 14 7 9 5 10 8 17 27
25 25 42 37 51 47 43 44 47 47 40 35 30 28 24 22 18 21 24 17 13 15 17 15 17 18 5 7 4 1 4 2 5 4 4 5 7 12 12 3 13 19 16 23 30
24 28 42 26 51 48 45 40 48 48 41 37 32 29 25 24 8 7 25 21 17 16 18 17 19 12 5 6 7 5 3 4 3 6 0 2 7 8 15 7 11 14 17 27 32
24 24 39 32 52 51 45 38 51 49 44 40 34 31 30 27 8 4 23 24 20 19 21 21 21 11 6 9 8 3 3 3 6 8 3 4 8 6 18 9 5 15 19 27 32
24 28 37 39 48 51 45 41 52 50 43 41 38 34 33 15 16 6 22 26 25 23 20 22 14 11 7 3 4 5 7 5 2 11 3 2 2 6 9 18 9 15 21 27 31
19 26 25 32 50 51 45 41 51 49 48 44 42 38 31 21 13 13 16 23 25 24 22 18 22 15 9 5 3 6 3 5 6 3 2 3 1 7 6 16 14 17 22 27 31
15 21 25 37 49 49 45 42 50 46 47 47 43 36 13 23 16 23 22 22 19 19 21 16 16 17 7 8 5 4 4 2 2 1 2 3 6 5 12 15 17 18 22 26 29
11 22 27 25 51 48 47 43 48 47 47 44 41 29 9 24 21 24 27 23 19 18 19 19 20 8 8 4 4 3 3 3 5 3 2 2 5 3 11 15 18 21 23 25 27
11 26 28 6 44 45 45 45 44 47 49 45 33 18 14 33 27 30 27 24 23 23 17 9 5 4 4 4 5 6 6 4 6 2 1 3 8 6 6 14 18 22 24 26 29
13 15 23 20 41 44 44 46 42 16 54 18 35 8 28 32 27 30 31 29 26 21 5 7 3 9 14 8 5 8 4 10 1 4 1 5 8 11 8 12 16 19 27 29 30
14 13 17 8 44 44 49 47 37 21 18 12 38 14 31 40 20 30 33 18 17 11 8 4 2 5 13 10 8 7 6 1 4 1 2 5 10 11 10 11 20 26 26 31 29
11 12 19 34 43 44 53 40 41 31 9 4 16 17 32 34 23 27 36 15 17 13 9 6 3 7 10 8 8 4 7 2 2 2 3 4 9 8 6 15 20 20 27 27 31
8 10 26 33 37 47 46 33 41 28 4 2 8 8 22 23 6 31 33 18 3 13 9 4 3 12 8 10 10 6 8 6 4 3 4 3 6 6 5 10 9 28 25 31 31
10 13 26 26 5 43 45 36 42 28 7 10 4 16 22 19 28 18 31 7 10 10 7 5 3 8 6 7 8 3 11 5 4 2 2 1 2 7 3 7 7 21 32 31 34
12 17 24 21 17 27 43 45 37 6 7 6 7 6 9 6 7 27 12 6 15 6 3 6 4 7 9 7 9 7 8 8 5 2 4 6 5 5 8 7 6 14 34 34 35
12 14 14 23 14 32 51 39 6 12 11 9 8 11 11 5 7 22 15 8 8 8 6 3 3 4 10 11 4 8 9 3 1 2 7 2 7 13 8 7 8 13 27 34 37
8 10 12 28 24 34 52 11 10 7 9 5 15 19 7 10 4 7 19 12 7 6 8 9 5 8 5 9 8 9 7 5 7 5 4 1 8 6 13 21 19 22 21 22 26
7 6 12 27 17 13 38 13 8 12 9 13 18 19 5 5 8 8 16 20 9 8 7 5 3 2 5 6 12 4 9 4 3 2 2 5 6 9 8 9 13 19 21 26 24
8 6 7 19 17 11 16 9 5 9 14 22 12 12 15 22 7 11 19 16 10 6 3 7 5 0 3 8 2 11 10 5 1 2 4 4 5 6 3 9 7 7 19 24 26
7 4 5 11 13 9 12 9 7 9 25 10 7 8 11 19 9 16 19 2 12 8 4 7 4 1 6 9 11 5 7 4 5 4 4 1 5 7 11 10 8 3 9 17 24
7 2 5 17 4 1 5 7 7 12 6 5 6 4 16 21 6 16 17 14 30 23 11 8 6 4 8 3 5 8 8 14 6 4 2 3 7 2 7 6 5 6 9 12 18
8 2 2 21 2 4 3 2 5 11 6 5 5 3 8 14 6 6 7 16 32 20 21 10 4 4 4 3 2 8 6 15 5 3 8 4 10 4 3 5 10 8 8 10 12
5 2 2 9 4 3 4 10 4 10 4 5 7 8 10 8 0 10 6 3 24 20 17 17 4 8 12 7 7 7 9 10 17 5 14 9 18 9 8 7 5 7 7 9 7
3 1 2 3 4 3 5 7 6 8 4 8 3 14 12 7 9 6 6 4 4 14 6 6 9 5 1 5 6 6 10 13 14 23 13 33 23 14 11 7 16 17 11 7 8
5 3 2 1 4 9 7 9 22 3 8 12 10 14 7 10 18 7 9 5 6 4 8 3 4 6 2 3 4 5 9 15 22 23 18 26 22 3 22 27 14 20 19 23 24
5 6 2 2 2 9 6 6 18 12 4 8 13 10 7 6 17 25 14 20 17 17 16 13 7 4 13 3 5 3 15 15 15 18 19 21 25 5 7 10 19 20 18 23 25
Wind_Direction
257 263 242 214 218 214 209 209 207 211 207 200 197 201 205 198 196 195 204 204 192 177 189 193 190 153 171 134 123 142 80 172 189 156 217 162 160 150 162 149 165 186 148 174 166
256 256 250 238 218 212 208 208 205 208 205 200 196 197 198 195 199 205 208 198 199 190 183 183 187 191 155 139 84 149 140 200 183 188 221 188 172 158 157 158 186 189 169 165 172
244 254 254 252 213 209 208 206 206 204 203 202 195 196 193 186 190 220 205 195 189 188 180 177 181 165 142 142 92 239 162 108 42 32 321 210 183 173 148 219 208 201 184 173 179
240 240 238 238 209 204 207 208 203 202 201 198 194 187 183 176 180 225 199 193 186 179 168 159 153 124 130 157 166 117 92 112 15 3 257 182 179 185 184 200 230 221 206 181 185
235 238 232 253 207 204 204 206 199 201 198 194 190 179 177 180 209 193 188 190 187 173 171 159 153 131 169 165 140 127 176 145 77 22 319 223 204 193 214 207 225 203 202 191 191
241 236 236 247 204 201 199 202 198 200 199 188 186 178 178 184 219 186 184 186 190 182 183 165 162 148 110 128 174 166 192 262 319 348 355 175 191 190 222 211 214 198 203 200 199
239 239 242 224 199 196 196 199 197 199 200 196 180 180 178 185 188 185 180 195 192 199 176 174 159 148 130 110 112 52 356 358 329 42 5 159 176 227 215 198 206 200 204 206 205
234 242 237 206 195 194 194 197 194 196 185 182 176 176 166 189 178 176 172 160 167 179 186 151 148 136 111 131 51 68 49 229 299 67 354 164 263 235 205 196 202 204 204 209 211
239 208 229 206 191 191 194 195 189 191 184 180 173 173 158 186 175 179 175 157 151 154 161 139 145 117 125 122 90 7 143 185 285 181 239 202 258 28 204 203 207 209 207 207 212
249 227 241 331 190 191 192 187 188 201 188 172 172 151 192 180 171 171 172 169 150 152 126 145 131 112 125 170 189 159 182 234 228 17 147 231 266 274 267 220 220 214 214 213 212
243 241 253 279 199 187 182 178 177 163 161 174 172 161 180 171 163 175 172 160 152 149 142 171 165 178 170 152 132 137 149 216 252 245 219 245 248 259 232 233 231 224 219 221 220
256 270 248 254 189 187 182 181 176 163 84 129 164 155 155 165 153 167 173 157 148 158 124 88 237 169 160 142 118 122 119 220 309 180 155 277 266 254 205 236 233 229 226 224 222
250 270 231 228 184 185 188 181 174 154 86 71 146 146 152 160 162 162 167 157 160 161 161 144 212 170 155 151 154 120 130 88 301 235 195 287 272 256 241 228 238 239 238 238 230
219 254 219 229 181 185 186 180 168 165 100 173 183 162 153 149 111 170 171 146 117 170 152 165 185 176 178 169 162 170 142 114 310 317 227 142 285 255 237 236 210 233 232 235 234
207 223 217 240 92 190 182 168 162 167 170 156 158 160 169 159 138 174 169 142 146 137 114 198 178 161 179 179 147 131 103 83 244 244 343 107 276 264 203 250 240 235 233 237 238
209 215 222 240 254 190 174 158 150 152 185 159 132 186 130 149 128 153 172 105 131 114 122 172 206 174 175 144 155 153 70 38 3 37 279 198 191 228 221 197 231 235 233 234 239
196 205 223 217 236 185 169 155 150 190 155 156 157 184 140 140 108 161 166 164 157 134 164 147 179 167 154 121 112 111 127 105 190 211 231 238 190 247 252 226 213 232 238 234 238
187 202 221 228 237 174 163 173 186 131 170 158 155 160 139 140 74 145 163 177 221 121 139 156 205 165 175 162 168 168 165 152 176 197 215 260 229 247 216 240 245 245 257 255 249
170 199 227 219 234 212 159 197 167 161 155 138 138 152 125 151 130 147 185 192 177 172 131 129 224 76 152 140 142 191 209 167 71 15 65 211 287 297 236 238 232 239 244 253 255
164 185 225 231 209 237 176 174 118 137 124 139 153 178 168 168 129 176 179 197 179 160 111 192 125 285 168 120 174 173 146 199 275 229 254 277 272 247 274 248 251 249 236 252 259
151 130 169 200 216 244 192 172 116 157 135 145 153 156 174 173 151 176 185 240 176 157 106 145 102 188 139 210 165 135 183 192 174 177 192 274 260 221 206 209 221 290 283 285 285
135 155 149 183 150 238 190 150 125 152 127 119 99 102 166 171 136 172 189 186 180 159 167 181 121 155 198 258 187 187 166 186 189 210 214 143 265 184 228 223 249 281 324 300 285
119 94 116 186 150 198 256 272 111 154 149 139 115 121 152 167 156 172 149 200 178 170 173 172 157 85 24 345 312 207 186 193 189 74 215 156 261 250 225 254 251 254 289 324 302
128 129 60 156 168 185 185 175 108 153 110 94 118 112 119 161 186 175 149 147 188 187 174 150 143 176 192 192 133 180 186 183 195 183 227 233 254 277 292 285 281 267 297 330 337
130 153 149 167 192 148 194 193 145 153 164 140 72 162 154 156 172 145 136 110 150 194 142 164 203 175 34 158 149 171 177 180 194 218 194 244 244 215 238 238 268 282 284 281 299
143 154 157 109 129 141 190 198 188 151 148 184 150 176 173 154 193 144 130 133 159 99 163 196 210 135 157 172 201 181 199 195 211 225 227 250 261 182 221 241 254 265 266 267 274
159 149 162 31 131 174 189 192 205 152 6 148 146 154 206 178 155 163 160 168 167 166 182 190 152 112 232 124 109 339 215 198 216 222 226 235 249 230 228 222 233 248 257 269 277
Height
1405 1418 1424 1428 1435 1442 1449 1455 1462 1469 1476 1483 1489 1494 1498 1502 1506 1508 1509 1514 1516 1518 1521 1524 1528 1534 1534 1537 1539 1541 1552 1557 1551 1556 1549 1549 1552 1553 1555 1557 1559 1561 1560 1562 1566
1403 1410 1415 1418 1428 1436 1444 1450 1456 1465 1472 1479 1485 1491 1495 1501 1503 1503 1509 1511 1514 1517 1519 1522 1526 1530 1534 1537 1539 1542 1547 1549 1545 1547 1547 1547 1548 1551 1555 1557 1558 1560 1560 1562 1566
1398 1401 1406 1412 1420 1430 1439 1445 1452 1459 1468 1475 1482 1488 1493 1498 1505 1500 1505 1508 1512 1515 1518 1521 1524 1528 1535 1537 1539 1542 1542 1543 1546 1545 1546 1547 1548 1550 1552 1557 1553 1554 1557 1560 1565
1392 1400 1399 1403 1413 1423 1432 1439 1447 1454 1464 1471 1478 1484 1490 1494 1502 1494 1499 1505 1510 1513 1516 1519 1524 1524 1534 1535 1539 1542 1542 1541 1543 1543 1544 1546 1547 1547 1549 1549 1550 1554 1556 1558 1561
1390 1388 1391 1397 1406 1416 1425 1434 1441 1451 1459 1467 1474 1481 1486 1492 1493 1494 1496 1501 1507 1511 1514 1517 1520 1525 1533 1534 1537 1538 1541 1543 1540 1542 1543 1543 1544 1545 1545 1547 1549 1552 1555 1557 1560
1378 1380 1386 1388 1396 1409 1419 1428 1436 1447 1453 1462 1470 1476 1483 1489 1491 1493 1495 1499 1504 1508 1512 1515 1518 1524 1531 1533 1534 1537 1541 1539 1539 1541 1541 1543 1544 1545 1543 1546 1548 1549 1552 1555 1557
1373 1377 1382 1382 1390 1403 1413 1423 1433 1442 1449 1459 1467 1473 1480 1485 1488 1491 1495 1499 1502 1507 1510 1513 1516 1521 1529 1535 1537 1537 1538 1538 1537 1540 1543 1543 1545 1542 1542 1544 1546 1547 1551 1553 1555
1373 1374 1377 1380 1386 1398 1407 1420 1429 1437 1442 1452 1463 1471 1479 1483 1488 1491 1497 1500 1503 1507 1511 1513 1512 1522 1530 1537 1535 1539 1543 1549 1541 1542 1544 1545 1548 1537 1540 1542 1544 1544 1547 1551 1553
1368 1372 1371 1368 1381 1394 1406 1417 1425 1434 1439 1449 1461 1468 1477 1481 1485 1489 1494 1498 1504 1508 1512 1514 1520 1525 1531 1535 1542 1546 1550 1555 1547 1542 1546 1546 1544 1537 1539 1540 1541 1542 1544 1546 1551
1366 1366 1365 1369 1379 1391 1403 1413 1422 1431 1438 1450 1458 1470 1470 1470 1478 1486 1493 1499 1501 1507 1513 1518 1519 1524 1530 1531 1535 1546 1548 1548 1545 1543 1544 1547 1545 1534 1538 1539 1538 1540 1542 1543 1545
1368 1365 1361 1369 1375 1387 1400 1411 1421 1417 1417 1428 1434 1445 1454 1466 1478 1485 1491 1498 1502 1508 1512 1517 1519 1515 1519 1521 1527 1534 1540 1543 1543 1543 1544 1548 1544 1534 1533 1536 1537 1537 1538 1540 1542
1361 1356 1359 1366 1373 1384 1394 1396 1403 1407 1417 1430 1441 1448 1455 1459 1472 1480 1489 1494 1499 1505 1510 1517 1521 1518 1518 1522 1529 1534 1542 1546 1544 1543 1546 1546 1542 1531 1529 1528 1529 1532 1534 1535 1539
1357 1357 1361 1367 1373 1381 1385 1395 1401 1409 1424 1437 1439 1446 1450 1459 1467 1474 1483 1488 1495 1503 1509 1515 1517 1518 1518 1523 1530 1536 1542 1545 1547 1543 1543 1544 1538 1529 1524 1524 1524 1526 1529 1533 1534
1353 1357 1363 1363 1370 1375 1384 1389 1397 1407 1426 1439 1442 1447 1448 1456 1469 1474 1482 1488 1497 1503 1509 1515 1513 1518 1519 1524 1528 1537 1538 1544 1547 1546 1549 1541 1547 1527 1523 1520 1516 1518 1522 1524 1527
1350 1358 1359 1361 1361 1368 1377 1388 1402 1410 1422 1439 1441 1446 1449 1451 1461 1474 1480 1484 1492 1498 1510 1512 1515 1520 1523 1523 1525 1532 1534 1543 1545 1545 1547 1546 1551 1529 1519 1519 1516 1512 1514 1516 1520
1353 1358 1355 1357 1359 1365 1378 1389 1399 1410 1410 1434 1438 1440 1446 1452 1457 1471 1477 1482 1490 1501 1506 1510 1511 1514 1515 1520 1524 1534 1539 1547 1552 1550 1554 1540 1544 1524 1516 1513 1506 1504 1505 1507 1511
1356 1355 1350 1355 1360 1361 1373 1386 1397 1390 1423 1432 1435 1436 1444 1454 1458 1466 1476 1484 1486 1503 1509 1510 1511 1512 1512 1522 1529 1531 1541 1557 1564 1560 1550 1543 1542 1504 1504 1501 1496 1495 1496 1499 1503
1348 1349 1347 1353 1359 1361 1368 1382 1377 1398 1408 1413 1425 1436 1443 1446 1460 1467 1472 1477 1480 1482 1498 1507 1520 1511 1510 1514 1526 1529 1531 1546 1555 1556 1542 1544 1525 1500 1488 1486 1488 1489 1493 1495 1496
1346 1344 1350 1352 1359 1353 1362 1365 1366 1379 1393 1404 1422 1426 1443 1443 1451 1462 1462 1463 1470 1471 1484 1498 1502 1503 1503 1506 1513 1531 1532 1532 1542 1576 1550 1526 1510 1496 1487 1483 1481 1481 1487 1488 1491
1344 1347 1349 1349 1353 1357 1358 1359 1367 1372 1383 1395 1404 1412 1426 1430 1446 1451 1457 1455 1462 1466 1468 1485 1500 1502 1505 1505 1511 1513 1523 1535 1541 1551 1548 1519 1515 1495 1484 1483 1477 1475 1477 1482 1484
1341 1345 1347 1351 1355 1360 1351 1358 1365 1371 1373 1391 1401 1408 1413 1419 1432 1440 1446 1451 1454 1465 1469 1478 1488 1507 1506 1501 1503 1515 1519 1522 1525 1532 1537 1539 1507 1483 1476 1474 1473 1474 1477 1479 1480
1340 1350 1346 1352 1357 1356 1356 1354 1358 1370 1373 1382 1390 1399 1403 1415 1428 1431 1439 1437 1445 1452 1468 1474 1490 1509 1504 1497 1495 1497 1503 1508 1513 1525 1533 1532 1507 1474 1476 1475 1475 1474 1474 1474 1475
1341 1345 1346 1352 1350 1356 1354 1352 1355 1368 1373 1379 1388 1390 1399 1412 1426 1426 1433 1437 1440 1446 1455 1465 1481 1515 1506 1499 1498 1494 1496 1494 1502 1516 1518 1530 1484 1471 1473 1474 1472 1473 1473 1472 1473
1344 1348 1348 1349 1355 1356 1358 1356 1361 1364 1371 1375 1384 1389 1401 1412 1413 1426 1433 1436 1440 1446 1449 1452 1471 1472 1475 1468 1480 1490 1490 1493 1493 1516 1496 1504 1479 1480 1472 1472 1472 1471 1471 1470 1469
1344 1346 1346 1352 1355 1357 1354 1356 1358 1363 1366 1371 1381 1382 1388 1405 1414 1423 1432 1439 1445 1445 1450 1456 1467 1468 1466 1466 1472 1475 1483 1488 1492 1478 1491 1460 1470 1474 1472 1470 1469 1468 1470 1470 1469
1343 1344 1349 1349 1348 1352 1356 1356 1352 1361 1363 1365 1371 1381 1386 1395 1390 1416 1421 1430 1437 1447 1452 1456 1467 1464 1475 1468 1473 1473 1478 1479 1475 1470 1475 1460 1460 1463 1463 1465 1466 1467 1465 1463 1464
1346 1346 1346 1347 1347 1351 1352 1356 1354 1355 1364 1364 1373 1383 1388 1388 1393 1402 1409 1414 1420 1428 1442 1447 1457 1474 1461 1478 1482 1490 1468 1470 1467 1463 1460 1467 1443 1460 1461 1460 1460 1460 1459 1457 1458